Terminal Aerodrome Forecast
Issued by NWS

Home | Current Version | Previous Version | Text Only | Print | Product List | Glossary On
Versions: 1 2 3 4 5 6 7 8 9 10 11 12 13 14 15 16 17 18 19 20 21 22 23 24 25 26 27 28 29 30 31 32 33 34 35 36 37 38 39 40 41 42 43 44 45 46 47 48 49 50
000
FTUS41 KCTP 291120
TAFBFD
TAF
KBFD 291120Z 2912/3012 30004KT P6SM BKN020
     FM291500 29007KT P6SM BKN035
     FM291800 28008G15KT P6SM -SHRA OVC030
     FM300100 22007KT P6SM VCSH BKN030=

USA.gov is the U.S. government's official web portal to all federal, state and local government web resources and services.